Regional Weather Roundup
Issued by NWS

Home | Current Version | Previous Version | Graphics & Text | Print | Product List | Glossary On
Versions: 1 2 3 4 5 6 7 8 9 10 11 12 13 14 15 16 17 18 19 20 21 22 23 24 25 26 27 28 29 30 31 32 33 34 35 36 37 38 39 40 41 42 43 44 45 46 47 48 49 50
735
ASUS45 KCYS 231310
RWRWY

WYOMING REGIONAL WEATHER ROUNDUP
NATIONAL WEATHER SERVICE CHEYENNE WY
700 AM MDT SUN APR 23 2017

NOTE:  "FAIR" INDICATES FEW OR NO CLOUDS BELOW 12,000 FEET
WITH NO SIGNIFICANT WEATHER AND/OR OBSTRUCTIONS TO VISIBILITY.

WYZ001-231400-
YELLOWSTONE NATIONAL PARK

CITY           SKY/WX    TMP DP  RH WIND       PRES   REMARKS
LK YELLOWSTONE   N/A     28  26  92 CALM      29.99S
W YELLOWSTONE  NOT AVBL

$$
WYZ002>013-054>058-071-098>099-231400-
NORTHERN WYOMING

CITY           SKY/WX    TMP DP  RH WIND       PRES   REMARKS
JACKSON        CLEAR     28  27  93 N9        29.96R WCI  20
CODY           MOCLDY    46  30  53 SE7       29.86F
GREYBULL       FAIR      37  33  85 SE7       29.85S WCI  32
WORLAND        FAIR      42  40  92 S6        29.86R
SHERIDAN       FAIR      35  32  88 CALM      29.84R
BUFFALO        FAIR      46  29  51 W7        29.86S
GILLETTE       FAIR      39  34  82 CALM      29.84S
HULETT         FAIR      46  32  57 SW7       29.86S
NEWCASTLE      FAIR      45  30  57 SE9       29.89S

$$
WYZ014>020-022>026-101>103-231400-
CENTRAL WYOMING

CITY           SKY/WX    TMP DP  RH WIND       PRES   REMARKS
BIG PINEY      FAIR      23  21  92 CALM      29.98S
PINEDALE       FAIR      27  23  86 W6        30.00S WCI  20
DUBOIS         FAIR      32  21  64 CALM      29.93F
LANDER         FAIR      40  29  64 W3        29.88S
RIVERTON       FAIR      44  27  51 CALM      29.91R
CASPER         FAIR      43  27  53 SW12      29.91R
DOUGLAS        FAIR      37  33  85 CALM      29.90F

$$
WYZ021-027>030-104>119-231400-
SOUTHERN WYOMING

CITY           SKY/WX    TMP DP  RH WIND       PRES   REMARKS
EVANSTON       FAIR      39  21  48 E5        29.96S
KEMMERER         N/A     32  27  80 N7        29.97F WCI  26
FORT BRIDGER   FAIR      36  26  65 CALM      29.99F
ROCK SPRINGS   FAIR      33  24  69 S8        29.97S WCI  26
DIXON            N/A     33  24  69 CALM      30.05S
RAWLINS        FAIR      41  19  41 S6        29.99F
SARATOGA       FAIR      36  21  55 SE10      30.01F WCI  28
LARAMIE        FAIR      37  24  59 S3        30.00F
CHEYENNE       FAIR      36  30  79 SW6       29.99F WCI  31
TORRINGTON     FAIR      41  33  73 E10       29.93F
PINE BLUFFS    FAIR      32  32 100 CALM      30.01S

$$




USA.gov is the U.S. government's official web portal to all federal, state and local government web resources and services.